DW9442 Weather Reports


time (UTC)temp
C
wind
direction
speed
KPH
gust
KPH
rain 1hr
cm
rain 24hr
cm
rain mn
cm
humidity
%
barometer
mb
20260507163017 16 257 0.0 3.2 0.00 0.00 0.00 61 1013.3
20260507161543 16 321 3.2 8.0 0.00 0.00 0.00 60 1013.3
20260507160027 17 138 0.0 3.2 0.00 0.00 0.00 58 1013.3
20260507154542 17 220 0.0 3.2 0.00 0.15 0.00 61 1013.3
20260507153005 17 264 0.0 3.2 0.00 0.15 0.00 66 1013.2
20260507151528 16 147 1.6 6.4 0.00 0.15 0.00 67 1013.0
20260507144551 14 71 0.0 8.0 0.00 0.99 0.00 74 1013.0
20260507143030 14 79 1.6 3.2 0.00 0.99 0.00 77 1013.1
20260507141602 13 176 0.0 4.8 0.00 0.99 0.00 78 1013.4
20260507140032 13 250 0.0 4.8 0.00 0.99 0.00 80 1013.5
20260507134502 12 264 4.8 9.7 0.00 1.55 0.00 83 1013.7
20260507133030 13 283 4.8 9.7 0.00 1.55 0.00 82 1013.6
20260507131557 13 307 0.0 6.4 0.00 1.55 0.00 84 1013.4
20260507130040 13 219 1.6 14.5 0.00 1.55 0.00 81 1013.5
20260507124518 15 233 11.3 25.7 0.00 1.57 0.00 78 1013.4
20260507123046 16 236 9.7 19.3 0.00 1.57 0.00 68 1012.9
20260507121516 16 253 6.4 19.3 0.00 1.57 0.00 66 1012.5
20260507120049 17 227 6.4 19.3 0.00 1.57 0.00 64 1012.4
20260507114502 18 300 3.2 12.9 0.00 1.57 0.00 59 1012.3
20260507113035 18 243 4.8 12.9 0.00 1.57 0.00 58 1012.4
20260507111504 19 248 0.0 9.7 0.00 1.57 0.00 56 1012.4
20260507110043 18 234 3.2 8.0 0.00 1.57 0.00 55 1012.5
20260507104506 18 297 4.8 11.3 0.00 1.60 0.00 63 1012.8
20260507103038 17 83 1.6 9.7 0.00 1.60 0.00 63 1013.0
20260507101508 17 242 3.2 8.0 0.00 1.60 0.00 71 1013.1
20260507100042 17 331 0.0 6.4 0.00 1.60 0.00 70 1013.3
20260507094510 16 102 0.0 9.7 0.00 1.68 0.00 74 1013.3
20260507093039 16 186 3.2 9.7 0.00 1.68 0.00 73 1013.4
20260507091504 15 161 0.0 3.2 0.00 1.68 0.00 76 1013.4
20260507090039 15 184 1.6 4.8 0.00 1.68 0.00 78 1013.5
20260507084513 14 193 4.8 8.0 0.00 1.93 0.00 80 1013.5
20260507083042 13 213 0.0 4.8 0.00 1.93 0.00 79 1013.5
20260507081524 13 200 4.8 8.0 0.00 1.93 0.00 78 1013.4
20260507080101 13 84 0.0 4.8 0.00 1.93 0.00 82 1013.5
20260507074527 12 63 1.6 11.3 0.00 2.41 0.00 82 1013.4
20260507073058 12 8 3.2 8.0 0.00 2.41 0.00 85 1013.5
20260507071520 12 330 0.0 4.8 0.00 2.41 0.00 90 1013.4
20260507070109 11 34 1.6 4.8 0.00 2.41 0.00 91 1013.3
20260507064532 11 68 3.2 4.8 0.00 2.49 0.00 93 1013.3
20260507063006 10 61 1.6 3.2 0.00 2.49 0.00 94 1013.4
20260507061535 10 6 0.0 1.6 0.00 2.49 0.00 95 1013.3
20260507060004 10 97 0.0 1.6 0.00 2.49 0.00 95 1013.2
20260507054541 10 61 0.0 3.2 0.00 2.49 0.00 96 1013.2
20260507053007 10 289 0.0 1.6 0.00 2.49 0.00 96 1013.0
20260507051534 10 289 0.0 3.2 0.00 2.49 0.00 96 1012.9
20260507044530 10 109 0.0 1.6 0.00 2.49 0.00 96 1012.5
20260507043006 10 40 0.0 1.6 0.00 2.49 0.00 96 1012.4
20260507041544 9 40 0.0 0.0 0.00 2.49 0.00 96 1012.3
20260507040020 9 40 0.0 3.2 0.00 2.49 0.00 96 1012.2
20260507034557 9 21 0.0 1.6 0.00 2.49 0.00 96 1012.2
20260507033035 9 340 0.0 1.6 0.00 2.49 0.00 96 1012.1
20260507031522 9 44 0.0 3.2 0.00 2.49 0.00 96 1012.0
20260507030011 9 302 0.0 0.0 0.00 2.49 0.00 96 1012.1
20260507024552 9 302 0.0 0.0 0.00 2.49 0.00 96 1012.1
20260507023040 9 302 0.0 1.6 0.00 2.49 0.00 96 1012.1
20260507021525 10 302 0.0 1.6 0.00 2.49 0.00 96 1012.2
20260507020019 9 302 0.0 1.6 0.00 2.49 0.00 96 1012.1
20260507014556 9 302 0.0 0.0 0.00 2.49 0.00 96 1012.0
20260507013046 8 302 0.0 1.6 0.00 2.49 0.00 96 1011.9
20260507011522 9 128 0.0 1.6 0.00 2.49 0.00 96 1011.9
20260507010109 9 127 0.0 1.6 0.00 2.49 0.00 96 1011.9
20260507004549 9 128 0.0 1.6 0.00 2.49 0.00 95 1011.9
20260507003032 10 128 0.0 1.6 0.00 2.49 0.00 95 1012.0
20260507001507 10 257 0.0 1.6 0.00 2.49 0.00 95 1012.0
20260507000053 10 347 0.0 1.6 0.00 2.49 0.00 96 1012.0
20260506234530 10 332 0.0 1.6 0.00 2.49 0.00 96 1012.0
20260506233013 10 328 0.0 1.6 0.00 2.49 0.00 95 1011.9
20260506231619 10 328 0.0 1.6 0.00 2.49 0.00 95 1012.0
20260506230044 10 328 0.0 1.6 0.00 2.49 0.00 95 1012.0
20260506224528 10 328 0.0 0.0 0.00 2.49 0.00 95 1012.1
20260506223014 10 328 0.0 1.6 0.00 2.49 0.00 95 1012.0
20260506221600 10 328 0.0 0.0 0.00 2.49 0.00 95 1012.0
20260506220041 10 328 0.0 0.0 0.00 2.49 0.00 95 1011.9
20260506214521 10 328 0.0 3.2 0.00 2.49 2.49 95 1011.7
20260506213003 10 328 1.6 1.6 0.00 2.49 2.49 95 1011.7
20260506211549 10 304 0.0 3.2 0.00 2.49 2.49 95 1011.8
20260506210032 10 311 0.0 0.0 0.00 2.49 2.49 95 1011.7
20260506204516 10 311 0.0 0.0 0.00 2.49 2.49 95 1011.7
20260506203052 10 311 0.0 3.2 0.00 2.49 2.49 95 1011.5
20260506201643 11 306 0.0 1.6 0.00 2.49 2.49 95 1011.5
20260506200037 11 305 0.0 1.6 0.00 2.49 2.49 95 1011.4
20260506194505 11 262 0.0 1.6 0.00 2.54 2.49 94 1011.3
20260506193047 11 262 0.0 1.6 0.00 2.54 2.49 94 1011.2
20260506191535 12 4 0.0 1.6 0.00 2.54 2.49 94 1011.2
20260506190019 12 4 0.0 0.0 0.00 2.54 2.49 94 1011.1
20260506184625 12 4 0.0 1.6 0.00 2.69 2.49 94 1010.8
20260506183036 12 4 0.0 1.6 0.00 2.69 2.49 93 1010.8
20260506181516 12 4 0.0 0.0 0.00 2.69 2.49 93 1010.7
20260506180051 12 4 0.0 1.6 0.00 2.69 2.49 92 1010.5
20260506174532 13 108 0.0 1.6 0.00 2.77 2.49 92 1010.4
20260506173011 13 63 0.0 1.6 0.00 2.77 2.49 91 1010.4
20260506171553 13 81 0.0 3.2 0.00 2.77 2.49 91 1010.2
20260506170026 12 75 1.6 3.2 0.00 2.77 2.49 90 1010.0
20260506164505 12 51 0.0 3.2 0.00 2.82 2.49 92 1010.0